NOAA NWS Hourly Roundups by Site

Regional Weather Roundup for Omaha, NE

To Select Another Site Choose from List

Select Site:  

000
ASUS43 KOAX 271410
RWRNE

WEATHER ROUNDUP FOR NEBRASKA
NATIONAL WEATHER SERVICE OMAHA NE
800 AM CST THU JAN 27 2022

NOTES: SATELLITE DATA IS BEING USED TO AUGMENT CLOUD COVER ABOVE
       12000 FEET.
       "FAIR" INDICATES FEW OR NO CLOUDS BELOW 12,000 FEET WITH NO
       SIGNIFICANT WEATHER AND/OR OBSTRUCTIONS TO VISIBILITY.


NEZ001>004-019>022-054>056-271500-
NEBRASKA PANHANDLE

CITY           SKY/WX    TMP DP  RH WIND       PRES   REMARKS
SCOTTSBLUFF    CLOUDY    30  20  66 W9        30.28R WCI  22
ALLIANCE       MOCLDY    22  17  81 NW5       30.23R WCI  16
CHADRON        CLOUDY    30  19  63 VRB6      30.27R WCI  24
GORDON         PTCLDY    22  19  85 W9        30.23R WCI  12
KIMBALL        LGT SNOW  25  23  91 N9        30.25R WCI  15
SIDNEY         CLOUDY    29  19  66 NW10      30.23R WCI  20
$$

NEZ057>060-069>072-079>082-271500-
SOUTHWEST NEBRASKA

CITY           SKY/WX    TMP DP  RH WIND       PRES   REMARKS
NORTH PLATTE   PTCLDY    19  14  81 W8        30.25R WCI   9
IMPERIAL       MOCLDY    26  19  74 W6        30.26R WCI  19
LEXINGTON      MOCLDY    24  19  83 NW8       30.24R WCI  15
MCCOOK         MOCLDY    24  19  81 W7        30.26R WCI  16
OGALLALA       MOCLDY    30  23  73 NW6       30.25R WCI  24
$$

NEZ005>010-023>029-035>040-094-271500-
NORTH CENTRAL NEBRASKA

CITY           SKY/WX    TMP DP  RH WIND       PRES   REMARKS
VALENTINE      CLOUDY    30  24  78 W7        30.22R WCI  23
AINSWORTH      CLOUDY    24  19  84 W8        30.22R WCI  14
BROKEN BOW     CLEAR     26  20  77 NW12      30.21R WCI  16
O`NEILL        CLOUDY    29  23  79 NW12      30.20R WCI  19
ORD            CLEAR     16  14  92 NW7       30.21R WCI   6
THEDFORD       MOCLDY    21  19  91 W7        30.24R WCI  12
$$

NEZ041-046>049-061>064-073>077-083>087-271500-
SOUTH CENTRAL NEBRASKA

CITY           SKY/WX    TMP DP  RH WIND       PRES   REMARKS
GRAND ISLAND   MOCLDY    22  17  81 W8        30.23R WCI  12
AURORA         MOCLDY    21  18  86 NW8       30.21R WCI  12
HASTINGS       MOCLDY    22  19  89 NW8       30.22R WCI  12
HEBRON         MOCLDY    26  21  82 NW6       30.23R WCI  19
HOLDREGE       MOCLDY    27  22  79 NW9       30.23R WCI  18
KEARNEY        MOCLDY    24  20  84 NW8       30.24R WCI  15
YORK           MOCLDY    21  19  93 W10       30.21R WCI  10
$$

NEZ011>018-030>034-042>045-271500-
NORTHEAST NEBRASKA

CITY           SKY/WX    TMP DP  RH WIND       PRES   REMARKS
NORFOLK        CLOUDY    32  20  61 NW6       30.18R WCI  26
ALBION         PTCLDY    27  23  85 CALM      30.19R
BLAIR          PTCLDY    27  20  74 NW7       30.18R WCI  20
COLUMBUS       CLOUDY    31  26  82 W6        30.22R WCI  25
FREMONT        MOCLDY    26  20  77 W3        30.20R
TEKAMAH        MOCLDY    29  19  66 NW10      30.19R WCI  20
WAYNE          CLOUDY    32  20  62 NW6       30.17R WCI  26
$$

NEZ050>053-065>068-078-088>093-271500-
SOUTHEAST NEBRASKA

CITY           SKY/WX    TMP DP  RH WIND       PRES   REMARKS
LINCOLN        CLOUDY    27  21  78 N3        30.22R
OMAHA EPPLEY   PTCLDY    29  20  69 NW12      30.18R WCI  19
BEATRICE       MOCLDY    21  18  87 W3        30.22R
FALLS CITY     PTCLDY    20  16  84 W7        30.21R WCI  11
NEBRASKA CITY  MOCLDY    27  20  76 NW10      30.19R WCI  17
PLATTSMOUTH    MOCLDY    26  21  80 NW7       30.19R WCI  18
$$

NEZ044-045-051>053-067-271500-
OMAHA AREA

CITY           SKY/WX    TMP DP  RH WIND       PRES   REMARKS
OMAHA EPPLEY   PTCLDY    29  20  69 NW12      30.18R WCI  19
BLAIR          PTCLDY    27  20  74 NW7       30.18R WCI  20
FREMONT        MOCLDY    26  20  77 W3        30.20R
MILLARD        PTCLDY    25  20  81 W5        30.20R WCI  19
OFFUTT AFB     CLEAR     21  16  79 CALM      30.22R
PLATTSMOUTH    MOCLDY    26  21  80 NW7       30.19R WCI  18
WAHOO          CLOUDY    29  23  77 NW7       30.21R WCI  22
$$


 

View Past Reports for Omaha, NE.

Products Courtesy of NOAA-NWS
NWS Information Parsing Script by Ken True at Saratoga Weather - Script by SE Lincoln Weather.

This data is offered only as a general guide to local weather conditions. It should not be relied upon in lieu of officially disseminated weather information for determining possible risk to persons or property. This site, including all information contained therein, is made available as is without warranties of any kind, either express or implied. The Vicarage Weather Feed© includes links to other sites for user convenience only. The content of any linked third-party site is not controlled by The Vicarage Weather Feed©. Access to any third-party website through The Vicarage Weather Feed©, regardless of whether or not the third-party site is a linked site, is entirely at the users own risk. Externally sourced content or material is excluded from The Vicarage Weather Feed© copyright and is the copyright and property of the respective provider. Skywarn® and the Skywarn® logo are registered trademarks of the National Oceanic and Atmospheric Administration, used with permission.